Tracking 25949 objects as of 9-Aug-2022
HD Live streaming from Space Station
objects crossing your sky now

STARLINK-3751

Track STARLINK-3751 now!
10-day predictions
STARLINK-3751 is classified as:


NORAD ID: 52289
Int'l Code: 2022-041AE
Perigee: 545.1 km
Apogee: 548.6 km
Inclination: 53.2 °
Period: 95.4 minutes
Semi major axis: 6917 km
RCS: Unknown
Launch date: April 21, 2022
Source: United States (US)
Launch site: AIR FORCE EASTERN TEST RANGE (AFETR)
aabbcc
Your satellite tracking list
Your tracking list is empty




NASA's NSSDC Master Catalog

Two Line Element Set (TLE):
1 52289U 22041AE  22221.16667824 -.00032495  00000-0 -20316-2 0  9993
2 52289  53.2141 213.3068 0002506  51.1842  92.7651 15.08859143 18183
Source of the keplerian elements: AFSPC